Rbgn^[z[y[W
メイン
   新天体発見情報
     Comet C/2019 T5 (ATLAS)
投稿するにはまず登録を

スレッド表示 | 新しいものから 前のトピック | 次のトピック | 下へ
投稿者 スレッド
佐藤裕久
投稿日時: 2019-11-11 13:09
モデレータ
登録日: 2005-6-12
居住地: 日本
投稿: 2023
オンライン
Comet C/2019 T5 (ATLAS)

Heather Flewellingの報告によると、10月8.6日UT、ハワイ Mauna Loaにある小惑星地球衝突最終警
報システム Asteroid Terrestrial-impact Last Alert System (ATLAS)調査プログラムのコースに
0.5-m 反射望遠鏡で得たCCD画像から集光した5"のコマがあり尾のない彗星を発見した。
小惑星センターのNEOCPとPCCP webpageに公表された後、R. S. McMillan (アリゾナ大学)によると、
10月19.5日UT、Kitt PeakにあるSpacewatch 1.8-m f/2.7 反射望遠鏡で得たCCD画像から、2".0の
シーイングでp.a. 275°に向けて拡散した8"の尾が見える。R光度は19.2-19.4等であった。
McMillanの10月21.5日のフォローアップ観測では、2".4のシーイングで西に向けてかすかな10"の尾
が見える。

発見位置は次のとおり、

     2019 UT             R.A. (2000) Decl.       Mag.
     Oct.  8.61443    9 21 57.52   - 6 39 48.6   18.9
           8.61768    9 21 57.86   - 6 39 53.6   18.9
           8.62358    9 21 58.56   - 6 40 02.9   19.1
           8.63135    9 21 59.52   - 6 40 14.1   19.0

MPCの楕円軌道要素と位置推算表は次のとおり、

Orbital elements:
    C/2019 T5 (ATLAS)                                                           
Epoch 2019 July 16.0 TT = JDT 2458680.5                                         
T 2019 Aug. 1.03178 TT                                  Rudenko                 
q   1.5281235            (2000.0)            P               Q                  
n   0.04441401     Peri.  189.54931     +0.24630547     -0.82440681             
a   7.8968896      Node   247.68746     +0.92160480     +0.36195583             
e   0.8064905      Incl.   33.42452     +0.29996367     -0.43513376             
P  22.2                                                                         
From 53 observations 2019 Oct. 8-23, mean residual 0".5.                        
                                                                                
    C/2019 T5 (ATLAS)                                                           
Epoch 2041 Oct. 8.0 TT = JDT 2466800.5                                          
T 2041 Sept. 30.08270 TT                                Rudenko                 
q   1.5244904            (2000.0)            P               Q                  
n   0.04452990     Peri.  189.63212     +0.24699470     -0.82431618             
a   7.8831819      Node   247.57719     +0.92169902     +0.36211811             
e   0.8066148      Incl.   33.44060     +0.29910622     -0.43517043             
P  22.1                                                                         
From 53 observations 2019 Oct. 8-23.                                            
                                                                                
    C/2019 T5 (ATLAS)                                                           
Epoch 2019 Apr. 27.0 TT = JDT 2458600.5                                         
T 2019 Aug. 1.03591 TT                                  Rudenko                 
q   1.5281071            (2000.0)            P               Q                  
n   0.04442944     Peri.  189.55205     +0.24626998     -0.82441608             
a   7.8950612      Node   247.68725     +0.92162136     +0.36191510             
e   0.8064477      Incl.   33.42474     +0.29994194     -0.43515007             
P  22.2                                                                         
From 53 observations 2019 Oct. 8-23, mean residual 0".5.                        
                                                                                
Ephemeris:
Date    TT    R. A. (2000) Decl.     Delta      r    Elong.  Phase   m1
2019 09 23    08 48 31.7 -00 05 18   2.1704  1.6629    47.3    26.3  18.9
...
2019 10 08    09 20 42.7 -06 24 18   2.1589  1.7423    52.5    27.1  19.1
...
2019 10 16    09 36 24.6 -09 44 36   2.1545  1.7900    55.5    27.3  19.2
...
2019 10 22    09 47 30.4 -12 12 51   2.1516  1.8280    57.9    27.5  19.3
2019 10 23    09 49 18.0 -12 37 21   2.1511  1.8345    58.3    27.5  19.3
2019 10 24    09 51 04.5 -13 01 48   2.1506  1.8410    58.7    27.5  19.3
...
2019 10 30    10 01 22.3 -15 26 59   2.1474  1.8811    61.1    27.5  19.4
...
2019 11 07    10 14 06.8 -18 36 02   2.1427  1.9367    64.6    27.5  19.5
...
2019 11 22    10 34 46.4 -24 13 41   2.1309  2.0466    71.6    27.3  19.8

(CBET 4683、MPEC 2019-U116)

スレッド表示 | 新しいものから 前のトピック | 次のトピック | トップ

投稿するにはまず登録を
 
© 1999 Tsutomu Seki.